                ,  0.721,  0.869,  1.017,  1.165,  1.312,  1.460,  1.608,  1.756,  1.904,  2.052,  2.199,  2.347,  2.495,  2.643,  2.791,  2.938,  3.086,  3.234,  3.382,  3.530,  3.677,  3.825,  3.973,  4.121,  4.269,  4.417,  4.564,  4.712,  4.860,  5.008,  5.156,  5.303
1999/07/28 00:00,   38.5,   39.6,   39.9,   39.4,   38.2,   42.7,   42.8,   40.1,   32.9,   30.5,   36.6,   37.9,  999.0,  999.0,   40.6,   42.4,   43.8,   45.0,   45.9,   46.1,   45.9,   45.1,   44.0,   42.3,   43.9,   42.2,   34.7,   32.3,   30.0,   25.9,   24.8,   23.5
1999/07/28 00:10,   37.9,   37.9,   38.6,   40.7,   39.8,   39.8,   38.8,   39.5,   34.7,   31.4,   36.4,   36.1,   41.0,   42.9,   36.5,   38.4,   40.6,   41.3,   42.9,   43.8,   44.0,   43.4,   42.7,   40.8,   42.6,   44.3,   34.8,   32.5,   31.5,   31.5,   40.4,   28.3
1999/07/28 00:20,   35.6,   36.8,   35.4,   36.3,   38.1,   38.4,   37.8,   40.0,   37.9,   39.0,   40.8,   42.2,   42.8,   43.5,   45.4,   46.8,   47.5,   47.7,   46.6,   45.5,   44.7,   40.5,   40.6,   42.3,   47.0,   43.4,   41.3,   41.7,   42.9,   46.9,   49.6,   52.3
1999/07/28 00:30,   39.6,   40.5,   36.5,   39.1,   40.7,   40.3,   38.4,   40.5,   41.5,   40.5,   42.7,   43.8,   46.4,   48.0,   48.8,   50.2,   51.5,   51.2,   51.3,   52.0,   51.6,   50.9,   49.5,   49.8,   55.9,   55.6,   47.9,   48.2,   49.2,   51.6,   52.8,   54.0
1999/07/28 00:40,   53.4,   54.9,   56.1,   56.7,   56.6,   55.5,   60.2,   58.6,   56.0,   50.7,   50.3,   49.4,   49.7,   50.0,   51.0,   52.3,   52.8,   53.0,   52.7,   52.6,   52.8,   52.1,   52.3,   52.1,   57.4,   58.9,   51.5,   51.2,   50.8,   50.6,   51.2,   49.4
1999/07/28 00:50,   53.4,   54.7,   55.9,   56.8,   58.0,   58.2,   57.3,   57.9,   58.4,   58.3,   57.9,   58.3,   58.0,   57.6,   57.2,   57.3,   56.8,   56.0,   55.4,   54.8,   54.5,   54.9,   54.0,   55.2,   60.5,   59.5,   51.5,   50.2,   49.9,   49.8,   48.7,   46.9
1999/07/28 01:00,   58.9,   60.8,   62.0,   62.3,   62.8,   62.3,   61.1,   60.1,   59.2,   58.4,   57.4,   56.8,   55.4,   54.5,   53.8,   53.0,   52.0,   50.6,   49.2,   48.1,   47.2,   46.2,   45.1,   44.3,   44.6,   45.2,   44.2,   45.8,   47.4,   46.5,   45.5,   43.9
1999/07/28 01:10,   60.3,   61.6,   62.3,   62.8,   62.9,   61.7,   60.5,   59.0,   57.8,   56.8,   55.3,   54.3,   53.2,   53.2,   51.7,   50.8,   50.1,   49.0,   48.4,   47.4,   46.0,   45.5,   43.5,   41.7,   39.7,   41.9,   35.3,   37.8,   41.7,   42.5,   42.5,   42.5
1999/07/28 01:20,   57.5,   59.2,   60.2,   60.7,   61.1,   60.2,   58.7,   57.2,   55.7,   54.6,   52.8,   51.4,   49.9,   48.5,   46.8,   45.9,   44.9,   44.1,   43.2,   42.6,   41.9,   40.8,   40.2,   38.4,   37.4,   38.9,   35.5,   36.0,   37.7,   43.1,   44.5,   44.0
1999/07/28 01:30,   55.8,   57.6,   58.5,   58.6,   59.4,   58.3,   57.9,   56.5,   55.5,   54.6,   53.6,   53.1,   52.6,   52.3,   51.8,   51.5,   50.6,   50.5,   50.2,   50.0,   49.6,   48.6,   47.7,   46.8,   50.3,   47.3,   42.9,   42.5,   41.8,   40.7,   38.2,   38.7
1999/07/28 01:40,   53.7,   55.5,   57.0,   57.9,   59.0,   58.9,   58.4,   56.8,   56.0,   54.6,   53.1,   52.5,   51.1,   49.9,   48.8,   47.4,   46.2,   45.3,   44.2,   43.1,   42.4,   41.4,   40.0,   38.7,   41.5,   41.0,   35.2,   34.7,   34.8,   35.9,   41.2,   44.1
1999/07/28 01:50,   43.5,   45.1,   45.8,   52.3,   48.5,   47.1,   46.6,   46.1,   45.9,   48.3,   44.6,   43.7,   44.2,   46.0,   43.1,   42.3,   42.1,   41.4,   41.4,   40.7,   41.0,   40.1,   39.5,   42.4,   38.8,   33.1,   30.0,   32.7,   36.4,   42.8,   45.6,   47.1
1999/07/28 02:00,   48.2,   52.4,   53.1,   56.5,   56.6,   57.2,   54.6,   53.3,   52.3,   50.5,   49.5,   48.9,   48.3,   47.3,   48.4,   46.2,   45.2,   44.3,   43.1,   42.1,   40.9,   39.3,   38.3,   39.7,   38.3,   33.7,   35.6,   40.7,   45.4,   47.9,   49.4,   50.1
1999/07/28 02:10,   57.1,   58.7,   59.3,   60.0,   60.3,   59.8,   59.1,   57.4,   56.4,   56.5,   55.5,   54.7,   53.6,   52.5,   52.1,   51.1,   50.2,   48.7,   47.4,   46.1,   44.8,   43.5,   42.2,   42.2,   44.8,   39.2,   39.3,   40.5,   42.7,   45.1,   47.2,   48.3
1999/07/28 02:20,   62.3,   62.8,   64.1,   63.2,   63.3,   62.2,   60.4,   59.2,   57.9,   57.0,   56.3,   54.9,   54.0,   54.7,   54.0,   53.4,   52.8,   51.8,   50.6,   50.4,   49.6,   46.6,   48.3,   47.6,   47.0,   52.0,   48.1,   45.9,   44.9,   43.3,   42.5,   43.4
1999/07/28 02:30,   67.7,   69.3,   70.7,   71.5,   72.3,   72.4,   71.3,   71.2,   70.1,   69.7,   68.8,   68.4,   67.4,   66.7,   65.6,   65.8,   65.1,   64.4,   63.8,   63.3,   62.5,   62.6,   60.5,   60.9,   63.7,   64.7,   62.2,   55.3,   52.1,   49.1,   45.5,   43.7
1999/07/28 02:40,   67.1,   69.6,   71.5,   73.1,   74.2,   74.9,   74.6,   73.9,   73.7,   72.6,   73.0,   72.1,   71.3,   70.3,   70.1,   69.3,   68.5,   68.1,   67.9,   67.1,   66.9,   66.3,   68.7,   74.0,   76.2,   71.5,   66.5,   64.1,   62.4,   61.1,   58.2,   55.7
1999/07/28 02:50,   64.0,   65.1,   66.3,   67.1,   68.9,   68.0,   65.5,   66.2,   65.7,   65.0,   64.6,   64.0,   63.0,   63.2,   62.1,   61.5,   60.8,   59.4,   59.6,   60.9,   59.5,   57.3,   56.8,   58.8,   63.8,   64.0,   59.9,   58.7,   57.5,   55.6,   54.8,   54.1
1999/07/28 03:00,   57.9,   60.2,   63.1,   64.3,   65.0,   65.1,   64.5,   63.4,   60.1,   59.2,   58.8,   57.8,   56.9,   58.8,   56.7,   56.9,   57.1,   56.4,   56.6,   55.6,   55.9,   55.1,   54.2,   54.1,   59.9,   56.5,   53.0,   52.4,   52.0,   51.6,   50.1,   49.2
1999/07/28 03:10,   47.0,   50.2,   49.7,   51.0,   51.8,   52.0,   50.9,   50.6,   51.0,   51.0,   51.5,   51.5,   52.4,   51.6,   51.9,   51.7,   52.1,   52.1,   52.4,   52.6,   53.0,   52.7,   52.4,   53.7,   57.8,   51.9,   51.5,   53.0,   53.7,   53.5,   52.9,   52.5
1999/07/28 03:20,   45.4,   47.6,   47.5,   52.0,   53.1,   53.2,   52.3,   52.9,   51.9,   51.4,   51.6,   51.9,   51.7,   50.2,   51.3,   50.9,   50.3,   49.5,   48.8,   48.2,   47.1,   46.5,   45.6,   43.4,   45.4,   42.8,   42.6,   44.3,   44.0,   43.6,   43.3,   42.5
1999/07/28 03:30,   59.5,   62.4,   64.3,   66.5,   67.2,   66.0,   66.5,   63.9,   63.7,   63.9,   62.6,   62.7,   61.6,   62.1,   60.7,   59.8,   59.6,   59.2,   58.5,   57.1,   56.2,   56.5,   56.5,   55.4,   57.5,   59.0,   53.0,   50.1,   48.4,   46.5,   45.7,   44.8
1999/07/28 03:40,   63.2,   64.7,   66.5,   68.1,   68.7,   70.5,   73.6,   70.7,   70.0,   69.0,   67.9,   67.7,   68.3,   67.6,   67.0,   67.7,   67.2,   65.6,   66.0,   65.6,   65.0,   64.9,   66.4,   70.9,   70.3,   63.8,   59.4,   56.1,   53.6,   50.6,   47.7,   46.0
1999/07/28 03:50,   66.6,   68.3,   70.9,   72.2,   73.1,   73.3,   72.9,   72.4,   72.2,   71.5,   71.0,   70.4,   69.6,   68.6,   68.6,   67.5,   67.0,   66.6,   67.1,   66.8,   66.7,   67.2,   68.9,   73.3,   76.8,   69.5,   64.4,   61.4,   57.8,   55.6,   53.2,   52.9
1999/07/28 04:00,   66.0,   67.8,   69.4,   71.3,   71.9,   72.3,   72.0,   71.3,   70.8,   70.6,   70.1,   69.5,   68.3,   67.9,   64.7,   64.3,   65.1,   64.7,   66.6,   63.5,   62.3,   63.0,   63.7,   59.0,   59.9,   57.8,   50.2,   55.4,   50.2,   47.8,   47.2,   46.8
1999/07/28 04:10,   59.2,   60.6,   59.9,   60.7,   61.2,   60.5,   60.4,   58.0,   58.4,   57.6,   58.4,   58.9,   57.4,   56.9,   56.2,   55.2,   54.4,   54.7,   53.6,   52.8,   51.8,   50.5,   49.6,   50.6,   54.4,   51.2,   46.8,   45.2,   43.1,   43.1,   41.2,   37.6
1999/07/28 04:20,   52.6,   54.7,   56.6,   57.4,   58.5,   58.5,   57.4,   57.0,   56.5,   55.5,   54.7,   53.8,   53.6,   53.5,   53.2,   53.2,   52.9,   53.5,   53.7,   53.1,   52.7,   50.4,   48.1,   47.2,   48.8,   44.2,   40.7,   41.3,   41.9,   42.2,   39.2,   34.3
1999/07/28 04:30,   44.6,   47.5,   52.9,   54.0,   54.8,   56.1,   57.4,   55.3,   55.8,   55.5,   55.2,   53.8,   52.9,   52.2,   53.4,   50.8,   49.8,   50.4,   50.5,   50.1,   50.1,   48.9,   47.1,   45.8,   45.3,   41.4,   35.5,   34.5,   34.3,   32.3,   30.1,   27.3
1999/07/28 04:40,   54.6,   56.9,   59.5,   62.8,   64.9,   64.1,   64.3,   63.1,   62.2,   62.5,   60.7,   60.2,   58.8,   58.6,   57.1,   56.6,   56.2,   55.3,   54.3,   53.7,   53.7,   52.9,   52.2,   51.6,   50.6,   53.1,   47.1,   40.7,   38.3,   35.2,   31.9,   28.9
1999/07/28 04:50,   62.1,   64.0,   64.6,   65.6,   68.1,   68.0,   67.8,   68.5,   66.9,   66.4,   65.8,   64.2,   63.9,   63.4,   62.6,   62.1,   61.5,   60.8,   60.7,   59.7,   59.0,   58.8,   56.2,   55.3,   53.8,   56.6,   53.9,   45.8,   40.9,   37.1,   35.5,   34.7
1999/07/28 05:00,   56.6,   57.0,   60.0,   62.9,   62.1,   63.4,   62.5,   62.2,   63.0,   62.9,   62.7,   61.6,   61.9,   60.9,   60.7,   60.3,   59.4,   59.2,   57.9,   57.5,   57.0,   56.2,   55.4,   54.3,   53.4,   53.9,   54.3,   44.7,   39.9,   37.7,   34.8,   34.3
1999/07/28 05:10,   49.1,   50.5,   50.1,   51.4,   49.9,   52.2,   53.9,   53.8,   50.8,   50.3,   51.9,   51.1,   52.5,   51.8,   52.1,   51.3,   51.2,   50.6,   50.4,   49.4,   48.2,   47.3,   45.8,   44.9,   44.3,   48.9,   48.1,   42.5,   40.1,   37.6,   34.9,   34.5
1999/07/28 05:20,   51.5,   52.2,   50.6,   56.1,   56.0,   56.4,   55.0,   56.1,   56.5,   56.0,   56.0,   53.7,   54.2,   53.1,   58.0,   56.3,   56.4,   55.2,   60.0,   55.6,   59.5,   53.3,   50.9,   51.0,   50.6,   55.6,   53.6,   48.7,   45.3,   42.0,   39.1,   38.7
1999/07/28 05:30,   47.0,   49.4,   51.4,   51.8,   52.7,   53.1,   52.8,   51.3,   51.7,   50.7,   53.0,   49.9,   49.8,   49.5,   49.5,   50.0,   49.4,   49.8,   49.7,   49.7,   49.9,   48.2,   47.2,   47.6,   51.5,   47.4,   45.0,   45.0,   44.8,   42.5,   39.8,   35.9
1999/07/28 05:40,   62.7,   65.3,   67.0,   67.9,   68.2,   67.9,   66.7,   66.6,   66.3,   65.6,   65.0,   64.0,   63.7,   61.8,   60.9,   60.5,   59.5,   57.9,   56.5,   55.4,   54.3,   53.1,   52.0,   50.8,   56.7,   54.6,   48.6,   45.9,   44.4,   42.6,   40.4,   39.7
1999/07/28 05:50,   49.8,   50.0,   54.3,   53.6,   51.3,   52.1,   53.6,   52.6,   52.4,   54.8,   52.3,   51.8,   51.9,   50.6,   50.4,   49.7,   48.9,   48.0,   47.3,   48.5,   49.1,   48.6,   47.2,   45.7,   49.9,   53.2,   46.0,   47.4,   44.0,   44.2,   45.5,   45.9
1999/07/28 06:00,   54.6,   55.3,   58.8,   63.0,   62.3,   62.2,   61.4,   60.2,   58.9,   57.4,   56.1,   55.1,   53.6,   52.7,   51.2,   50.0,   49.4,   49.8,   49.6,   51.5,   51.0,   53.9,   53.2,   47.5,   51.2,   60.0,   53.4,   54.9,   52.4,   51.5,   49.7,   48.5
1999/07/28 06:10,   55.5,   55.2,   57.3,   59.1,   60.0,   60.7,   59.8,   59.2,   58.7,   57.7,   56.6,   56.2,   55.3,   53.8,   52.8,   51.9,   50.8,   49.8,   49.1,   48.9,   48.1,   45.2,   43.5,   42.9,   42.0,   47.8,   43.7,   43.1,   43.2,   43.1,   41.4,   38.7
1999/07/28 06:20,   51.5,   53.4,   54.2,   55.6,   56.3,   55.4,   54.1,   54.5,   53.2,   53.3,   51.9,   51.1,   50.5,   49.5,   48.2,   47.0,   46.3,   45.6,   44.6,   43.4,   43.2,   43.2,   42.8,   41.7,   45.5,   48.8,   40.8,   38.2,   38.4,   38.2,   36.7,   33.7
1999/07/28 06:30,   48.7,   51.2,   53.2,   54.8,   55.9,   55.6,   54.1,   52.9,   52.3,   53.1,   52.6,   52.2,   51.6,   51.7,   50.0,   49.3,   47.9,   47.1,   46.6,   46.2,   47.0,   47.7,   46.7,   47.2,   47.7,   41.3,   37.2,   34.1,   34.3,   34.0,   32.9,   31.9
1999/07/28 06:40,   45.8,   51.8,   49.4,   54.9,   56.5,   57.1,   53.8,   54.0,   54.1,   54.1,   54.7,   55.9,   55.3,   56.0,   55.6,   54.3,   54.1,   53.7,   52.9,   52.8,   51.6,   49.1,   48.8,   45.2,   43.3,   41.0,   37.1,   35.5,   34.8,   32.3,   29.6,   29.1
1999/07/28 06:50,   38.3,   39.6,   42.9,   43.9,   46.9,   48.5,   45.3,   44.9,   44.3,   44.5,   45.0,   45.4,   45.8,   46.8,   46.8,   47.3,   47.3,   46.4,   46.0,   45.5,   44.7,   44.1,   42.7,   41.0,   41.8,   38.7,   35.9,   33.0,   30.3,   28.0,   29.6,   29.2
1999/07/28 07:00,   46.7,   48.9,   51.4,   53.0,   53.5,   52.8,   52.0,   51.1,   50.4,   50.0,   50.0,   49.9,   49.5,   49.3,   50.1,   48.9,   48.7,   48.0,   47.2,   45.5,   43.6,   42.6,   40.5,   37.9,   35.5,   36.7,   29.7,   26.4,   23.6,   17.1,   22.7,   25.0
1999/07/28 07:10,   51.8,   53.6,   54.7,   55.8,   56.7,   56.4,   55.0,   53.5,   52.3,   51.6,   50.6,   49.9,   50.0,   49.8,   49.5,   49.0,   47.7,   47.2,   46.2,   45.2,   43.8,   42.2,   41.4,   39.9,   38.9,   38.5,   32.7,   28.2,   21.1,   19.7,   20.3,   23.0
1999/07/28 07:20,   49.1,   51.5,   53.9,   56.1,   57.4,   58.0,   57.4,   56.8,   56.0,   55.8,   55.0,   54.1,   52.9,   52.0,   51.3,   50.4,   49.1,   48.7,   47.3,   46.2,   45.2,   44.8,   44.0,   42.7,   43.7,   44.0,   35.7,   30.4,   25.3,   23.3,   31.2,   32.6
1999/07/28 07:30,   40.1,   42.2,   45.2,   47.1,   50.2,   51.2,   51.0,   51.0,   50.9,   50.3,   49.9,   50.2,   49.0,   48.3,   47.2,   46.5,   46.4,   45.6,   44.4,   43.5,   42.0,   40.7,   39.0,   38.1,   37.0,   41.5,   33.2,   30.4,   27.7,   27.2,   33.6,   34.7
1999/07/28 07:40,   44.2,   46.9,   49.0,   51.1,   51.7,   51.8,   51.2,   50.9,   50.7,   50.0,   49.6,   49.6,   49.1,   48.3,   47.6,   46.1,   45.4,   44.2,   43.4,   43.3,   41.6,   39.9,   38.3,   38.7,   40.7,   43.8,   38.0,   37.4,   36.9,   36.1,   35.7,   34.5
1999/07/28 07:50,   41.4,   41.9,   44.0,   45.1,   45.8,   46.0,   45.9,   45.9,   40.7,   40.4,   40.9,   42.2,   40.8,   40.1,   39.9,   40.8,   41.7,   40.4,   39.3,   37.9,   36.7,   34.1,   32.7,   30.8,   32.4,   34.8,   35.3,   37.1,   38.9,   39.7,   38.4,   34.6
1999/07/28 08:00,   39.0,   40.1,   40.5,   41.8,   45.1,   45.2,   41.2,   40.2,   42.7,   42.0,   41.7,   43.1,   39.2,   38.0,   37.3,   37.2,   36.0,   35.8,   35.6,   36.3,   36.5,   34.8,   34.6,   34.4,   34.5,   36.9,   34.5,   34.0,   38.4,   42.0,   41.6,   39.4
1999/07/28 08:10,   36.4,   37.1,   39.3,   41.1,   42.9,   42.7,   37.5,   37.6,   39.5,   39.6,   41.4,   42.6,   41.2,   45.5,   45.1,   47.3,   47.0,   46.3,   46.6,   46.1,   44.8,   42.9,   40.1,   37.4,   36.9,   40.9,   35.9,   40.0,   41.8,   43.2,   42.8,   40.7
1999/07/28 08:20,   31.7,   32.9,   35.3,   38.5,   44.9,   41.0,   38.0,   37.3,   41.9,   41.1,   42.2,   41.2,   41.0,   39.4,   40.2,   41.5,   40.7,   39.7,   39.4,   38.7,   37.3,   35.3,   32.6,   29.5,   27.2,   29.0,   25.9,   32.1,   38.2,   40.1,   38.7,   35.6
1999/07/28 08:30,   32.7,   33.8,   39.7,   44.5,   45.2,   43.0,   38.4,   39.5,   39.7,   40.9,   40.6,   40.7,   40.0,   42.1,   38.8,   38.7,   35.1,   35.8,   33.6,   33.1,   32.3,   31.3,   30.4,   29.8,   28.3,   29.4,   28.3,   31.6,   34.0,   36.0,   36.3,   32.8
1999/07/28 08:40,   41.8,   44.2,   46.9,   47.2,   50.0,   50.4,   48.7,   47.1,   46.3,   45.8,   45.7,   45.9,   45.9,   46.1,   45.7,   44.9,   44.5,   44.4,   43.7,   42.4,   40.7,   39.6,   36.9,   34.5,   32.3,   31.4,   26.7,   28.8,   29.2,   32.2,   32.1,   30.3
1999/07/28 08:50,   51.6,   55.0,   56.4,   56.3,   55.2,   52.7,   53.6,   50.6,   52.2,   53.1,   51.4,   51.4,   51.3,   51.7,   50.8,   51.9,   50.6,   50.7,   52.0,   52.2,   51.9,   51.4,   50.3,   49.6,   53.3,   52.2,   48.7,   47.4,   46.0,   44.5,   41.0,   39.0
1999/07/28 09:00,   62.7,   64.4,   65.4,   66.6,   66.9,   67.8,   66.9,   65.9,   65.3,   64.9,   64.2,   64.1,   63.8,   63.6,   62.7,   62.4,   62.9,   62.1,   59.8,   59.6,   59.6,   59.5,   59.0,   60.1,   65.9,   59.2,   54.8,   53.1,   51.2,   49.1,   47.7,   46.1
1999/07/28 09:10,   57.7,   57.0,   57.8,   55.1,   55.3,   58.7,   59.7,   58.7,   59.8,   54.8,   56.6,   58.3,   55.4,   56.4,   56.6,   57.4,   61.2,   57.4,   58.5,   60.6,   61.1,   61.9,   62.7,   66.6,   75.7,   76.6,   66.9,   62.8,   60.2,   58.6,   56.4,   56.0
1999/07/28 09:20,   51.9,   53.1,   53.7,   53.7,   54.4,   53.6,   52.5,   51.2,   49.7,   49.3,   48.6,   48.0,   48.8,   49.7,   51.5,   52.1,   53.3,   53.2,   52.8,   52.3,   51.5,   50.0,   51.4,   51.7,   48.1,   53.6,   51.4,   51.9,   50.5,   50.9,   52.0,   50.1
1999/07/28 09:30,   56.4,   57.5,   58.6,   58.7,   60.0,   59.6,   58.3,   57.0,   56.2,   55.4,   54.2,   53.6,   52.6,   52.1,   50.9,   50.0,   48.5,   47.5,   45.3,   42.9,   40.6,   38.4,   34.5,   29.2,   27.4,   30.7,   30.2,   34.9,   38.2,   37.8,   37.2,   36.6
1999/07/28 09:40,   55.9,   57.6,   57.6,   58.4,   58.6,   58.1,   56.6,   56.0,   55.6,   54.4,   53.4,   53.7,   53.9,   53.3,   55.2,   53.4,   53.9,   52.1,   53.6,   52.7,   51.9,   49.9,   49.2,   49.0,   48.6,   52.6,   42.4,   36.0,   36.0,   35.2,   32.5,   32.2
1999/07/28 09:50,   51.1,   52.2,   53.0,   49.7,   53.7,   52.6,   51.8,   48.6,   48.5,   44.3,   45.0,   49.4,   45.3,   43.5,   44.9,   42.8,   42.4,   44.2,   45.9,   47.1,   46.4,   45.6,   45.8,   46.8,   42.8,   60.9,   50.9,   47.9,   42.5,   37.7,   37.1,   37.3
1999/07/28 10:00,   34.1,   38.1,   37.5,   38.8,   40.4,   40.5,   38.8,   39.0,   39.3,   40.1,   38.6,   40.7,   40.6,   37.2,   35.1,   35.0,   36.9,   37.0,   37.2,   36.9,   38.6,   40.1,   39.9,   38.2,   38.0,   40.0,   42.8,   37.2,   46.0,   46.1,   42.4,   37.6
1999/07/28 10:10,   34.5,   35.5,   36.7,   38.2,   39.3,   40.7,   39.3,   37.2,   40.2,   42.3,   39.9,   40.4,   40.1,   38.1,   36.9,   38.2,   37.1,   36.7,   36.5,   34.6,   36.9,   35.0,   36.6,   37.9,   36.8,   36.8,   35.2,   29.1,   31.8,   36.4,   36.8,   31.8
1999/07/28 10:20,   39.0,   39.0,   43.5,   46.0,   48.1,   47.2,   46.5,   46.0,   44.8,   47.5,   44.7,   46.2,   44.2,   44.8,   43.8,   43.7,   43.7,   43.5,   45.9,   45.3,   45.2,   49.7,   54.5,   47.0,   44.6,   44.5,   35.0,   32.7,   29.4,   26.5,   26.0,   25.8
1999/07/28 10:30,   42.9,   43.3,   44.8,   46.8,   46.0,   44.7,   44.7,   43.0,   42.0,   43.4,   42.8,   45.4,   41.5,   40.3,   40.8,   42.0,   43.7,   50.1,   50.3,   53.5,   54.9,   60.9,   59.6,   52.8,   55.3,   51.6,   44.0,   38.9,   33.3,   31.7,   34.2,   30.6
1999/07/28 10:40,   44.6,   45.8,   48.4,   49.1,   49.8,   48.9,   46.7,   44.2,   41.9,   39.3,   38.6,   38.7,   39.1,   38.1,   37.9,   37.3,   37.8,   36.8,   35.8,   37.7,   35.3,   35.3,   39.7,   39.9,   41.8,   37.6,   36.6,   31.5,   30.0,   23.4,   29.9,   28.4
1999/07/28 10:50,   47.8,   49.5,   52.0,   53.6,   51.2,   50.0,   51.2,   49.8,   45.7,   47.2,   45.8,   46.1,   45.7,   43.0,   45.6,   42.9,   41.5,   40.0,   42.7,   43.8,   42.0,   40.6,   41.5,   42.9,   47.2,   40.5,   35.9,   31.2,   27.9,   25.6,   23.5,  999.0
1999/07/28 11:00,   50.5,   51.8,   51.3,   50.1,   50.1,   50.5,   46.7,   45.9,   45.3,   45.7,   43.7,   41.9,   41.5,   40.6,   39.0,   34.2,   39.9,   40.1,   40.3,   41.2,   40.7,   42.6,   44.6,   46.1,   53.2,   47.8,   40.8,   34.8,   28.9,   22.7,   19.2,  999.0
1999/07/28 11:10,   50.0,   43.2,   38.8,   39.2,   35.2,   40.4,   47.2,   41.8,   37.3,   35.1,   38.7,   35.6,   39.3,   37.2,   37.3,   34.0,   38.6,   38.8,   40.0,   41.6,   42.9,   43.4,   44.2,   45.6,   50.5,   42.2,   39.1,   35.9,   30.6,   24.4,   21.2,   20.6
1999/07/28 11:20,   43.0,   42.4,   40.3,   43.4,   44.6,   44.6,   47.6,   43.9,   44.6,   44.8,   44.5,   45.0,   45.2,   45.6,   43.9,   45.0,   43.3,   43.0,   43.2,   43.6,   44.0,   43.8,   43.7,   44.2,   46.9,   40.8,   39.0,   35.7,   33.1,   30.4,   28.3,   25.3
1999/07/28 11:30,   47.4,   50.4,   50.5,   52.1,   53.1,   52.6,   54.4,   53.5,   53.2,   51.8,   51.5,   51.0,   50.9,   51.0,   51.5,   51.1,   51.2,   51.1,   51.3,   50.5,   49.8,   49.0,   47.8,   50.0,   48.6,   42.6,   39.4,   35.8,   32.9,   29.7,   24.7,   22.8
1999/07/28 11:40,   54.3,   52.0,   55.5,   54.6,   56.4,   57.4,   56.4,   54.4,   54.0,   53.7,   53.5,   54.0,   54.1,   54.0,   54.1,   54.1,   53.9,   54.0,   53.4,   52.8,   51.9,   51.2,   49.7,   53.1,   51.6,   46.3,   44.9,   41.5,   36.6,   35.4,   28.2,   22.9
1999/07/28 11:50,   63.1,   64.8,   66.5,   67.2,   67.5,   67.8,   66.7,   66.1,   65.7,   64.4,   63.5,   62.7,   63.3,   62.2,   62.2,   61.6,   60.7,   60.5,   59.7,   59.1,   58.5,   57.1,   56.7,   59.1,   59.1,   52.5,   50.8,   48.4,   46.0,   43.3,   39.0,   32.6
1999/07/28 12:00,   57.3,   58.7,   60.3,   61.4,   62.3,   62.0,   61.6,   61.0,   60.8,   60.7,   60.5,   60.3,   60.0,   60.1,   60.4,   60.2,   60.4,   59.9,   59.5,   59.0,   58.1,   56.6,   57.7,   60.1,   54.2,   51.0,   52.3,   50.0,   45.8,   42.1,   41.6,   42.7
1999/07/28 12:10,   54.7,   57.0,   58.5,   60.1,   61.4,   61.1,   60.5,   60.0,   60.4,   60.6,   60.9,   60.9,   60.5,   60.6,   60.1,   57.4,   59.9,   61.2,   59.9,   57.1,   59.7,   59.0,   60.4,   65.3,   64.3,   57.5,   55.1,   52.2,   49.1,   45.8,   44.3,   43.1
1999/07/28 12:20,   50.1,   53.0,   54.7,   57.2,   59.2,   60.9,   61.0,   61.5,   62.4,   62.4,   62.8,   63.1,   62.5,   62.7,   62.6,   62.3,   62.1,   60.8,   60.8,   59.9,   58.6,   57.6,   57.7,   61.7,   63.5,   54.9,   50.8,   48.4,   46.8,   47.4,   47.1,   48.1
1999/07/28 12:30,   54.2,   56.6,   58.6,   59.1,   60.6,   60.4,   59.5,   59.7,   59.6,   59.2,   59.8,   59.7,   60.0,   59.7,   59.4,   59.1,   58.6,   58.2,   57.9,   57.1,   56.6,   56.2,   60.5,   56.3,   49.0,   47.8,   47.7,   47.1,   45.6,   44.4,   42.3,   40.0
1999/07/28 12:40,   56.6,   58.3,   59.1,   59.2,   60.4,   60.2,   59.1,   58.0,   57.7,   57.0,   56.7,   55.7,   54.6,   53.7,   52.8,   52.2,   52.7,   50.8,   51.1,   50.5,   50.3,   50.2,   57.0,   51.4,   44.3,   43.5,   42.4,   42.5,   42.5,   40.2,   38.2,   37.4
1999/07/28 12:50,   45.0,   47.8,   52.1,   53.5,   55.9,   57.0,   56.4,   56.6,   56.6,   56.1,   55.8,   54.4,   53.9,   53.2,   52.7,   51.5,   50.9,   50.4,   49.7,   48.9,   48.3,   48.7,   52.5,   49.4,   41.6,   39.4,   37.1,   38.1,   40.2,   42.7,   43.0,   43.5
1999/07/28 13:00,   39.7,   44.7,   47.7,   47.8,   48.9,   49.4,   49.8,   49.3,   50.2,   49.9,   49.7,   49.1,   48.8,   48.4,   47.9,   47.0,   46.1,   46.1,   45.8,   44.9,   43.9,   43.5,   47.8,   47.0,   39.4,   34.6,   30.2,   35.2,   42.9,   46.5,   47.1,   46.6
1999/07/28 13:10,   44.9,   42.9,   44.2,   42.6,   41.0,   41.0,   43.2,   39.6,   38.3,   37.6,   31.4,   35.4,   37.3,   30.8,   32.8,   32.0,   32.2,   33.2,   33.4,   33.2,   32.6,   31.7,   34.6,   34.3,   32.0,   27.6,   21.6,   31.7,   42.5,   47.4,   45.7,   42.6
1999/07/28 13:20,   45.9,   46.2,   42.0,   38.0,   38.7,   38.0,   39.8,   41.4,   37.1,   33.8,   27.3,   32.2,   30.2,   26.8,   26.2,   29.7,   30.3,   32.6,   33.5,   29.9,   28.8,   27.6,   27.1,   23.3,   21.2,   16.7,   18.6,   27.2,   37.6,   40.0,   37.5,   35.1
1999/07/28 13:30,   39.4,   36.0,   38.5,   38.3,   40.1,   44.3,   43.7,   44.3,   37.2,   30.9,   32.9,   29.7,   28.9,   30.7,   27.1,   27.1,   31.2,   34.3,   33.4,   26.6,   28.8,   33.0,   30.8,   25.3,   24.8,   30.1,   19.3,   21.6,   29.5,   32.9,   34.0,   30.3
1999/07/28 13:40,   43.8,   37.5,   34.8,   37.4,   41.4,   38.4,   37.4,   41.5,   39.7,   32.9,   31.7,   29.6,   28.5,   25.2,   35.8,   36.4,   37.2,   39.0,   44.4,   43.1,   37.4,   35.7,   37.0,   33.3,   27.8,   29.8,   23.5,   36.8,   32.0,   32.0,   31.3,   32.5
1999/07/28 13:50,   40.1,   35.5,   36.9,   39.8,   43.1,   36.6,   36.5,   41.6,   38.5,   33.8,   35.4,   40.7,   41.2,   42.9,   43.6,   43.9,   43.4,   42.2,   41.2,   39.8,   42.8,   42.3,   39.0,   41.3,   34.6,   38.3,   42.4,   43.7,   44.5,   43.5,   42.1,   41.9
1999/07/28 14:00,   45.5,   42.4,   45.9,   48.5,   50.1,   48.1,   45.6,   45.8,   47.7,   48.2,   47.4,   41.8,   53.5,   53.1,   53.5,   52.8,   50.7,   49.6,   49.1,   48.4,   47.5,   46.4,   46.8,   46.2,   42.9,   44.4,   47.4,   49.5,   49.2,   50.2,   49.7,   49.3
1999/07/28 14:10,   52.6,   53.6,   53.7,   53.8,   53.5,   52.6,   49.6,   50.0,   50.7,   48.8,   49.6,   50.4,   51.6,   52.0,   52.2,   51.7,   52.5,   52.1,   51.1,   50.3,   49.2,   48.7,   49.1,   52.2,   51.0,   51.5,   51.3,   51.4,   51.4,   50.5,   48.6,   45.7